[TLELIST]

Mailing List Information:

  • This mailing list is a public mailing list - anyone may join or leave, at any time.

  • This mailing list is announce-only.

International Space Station (ISS) / Hubble Space Telescope (HST) / Chandra X-Ray Observatory Orbital Data via EMAIL

Privacy Policy:

Private list

Archives:

[TLELIST] Current TLEs

Sent May 28th 2017

HST 1 20580U 90037B 17147.76357639 +.00000500 +00000-0 +19853-4 0 9995 2 20580 028.4688 142.4739 0002545 317.7843 061.3072 15.08769280287116 ISS (ZARYA) 1 25544U 98067A 17147.85566935 +.00001409 +00000-0 +28729-4 0 9993 2 25544 051.6408 139.6590 0005159 200.2569 229.7977 15.53935245058595 CXO 1 25867U 99040B 17148.21080402 +.00000408 +00000-0 +00000-0 0 9990 2 25867 074.1551 290.4945 6821869 252.3605 000.4401 00.37794841015973 ____________________________________________________________________ These 2-Line ...

[TLELIST] Current TLEs

Sent May 27th 2017

HST 1 20580U 90037B 17146.46184240 +.00000491 +00000-0 +19271-4 0 9990 2 20580 028.4687 151.0756 0002501 302.4697 192.1583 15.08768385286912 ISS (ZARYA) 1 25544U 98067A 17146.57350904 +.00001688 +00000-0 +32974-4 0 9994 2 25544 051.6413 146.0488 0005140 194.6814 258.0121 15.53931367058393 CXO 1 25867U 99040B 17148.21080402 +.00000408 +00000-0 +00000-0 0 9990 2 25867 074.1551 290.4945 6821869 252.3605 000.4401 00.37794841015973 ____________________________________________________________________ These 2-Line ...

[TLELIST] Current TLEs

Sent May 26th 2017

HST 1 20580U 90037B 17145.44488822 +.00000583 +00000-0 +25009-4 0 9998 2 20580 028.4702 157.8003 0002506 283.6122 076.4183 15.08768591286848 ISS (ZARYA) 1 25544U 98067A 17145.55443664 +.00001584 +00000-0 +31400-4 0 9995 2 25544 051.6416 151.1276 0005248 190.8247 317.2527 15.53926869058237 CXO 1 25867U 99040B 17148.21080402 +.00000408 +00000-0 +00000-0 0 9990 2 25867 074.1551 290.4945 6821869 252.3605 000.4401 00.37794841015973 ____________________________________________________________________ These 2-Line ...

[TLELIST] Current TLEs

Sent May 25th 2017

HST 1 20580U 90037B 17144.48054991 +.00000485 +00000-0 +18925-4 0 9997 2 20580 028.4687 164.1678 0002470 279.0542 232.7378 15.08767049286619 ISS (ZARYA) 1 25544U 98067A 17144.89781703 +.00001573 +00000-0 +31242-4 0 9992 2 25544 051.6416 154.3996 0005308 189.3117 243.1127 15.53923882058131 CXO 1 25867U 99040B 17145.56598938 +.00000467 +00000-0 +00000-0 0 9998 2 25867 074.1630 290.5341 6820692 252.4626 000.3302 00.37797335004832 ____________________________________________________________________ These 2-Line ...

[TLELIST] Current TLEs

Sent May 24th 2017

HST 1 20580U 90037B 17144.27417696 +.00000491 +00000-0 +19254-4 0 9992 2 20580 028.4687 165.5315 0002470 276.5092 192.1348 15.08766927286580 ISS (ZARYA) 1 25544U 98067A 17144.05474941 +.00001845 +00000-0 +35376-4 0 9997 2 25544 051.6411 158.6011 0005322 185.9327 207.1487 15.53921636058002 CXO 1 25867U 99040B 17145.56598938 +.00000467 +00000-0 +00000-0 0 9998 2 25867 074.1630 290.5341 6820692 252.4626 000.3302 00.37797335004832 ____________________________________________________________________ These 2-Line ...

[TLELIST] Current TLEs

Sent May 23rd 2017

HST 1 20580U 90037B 17142.93695602 +.00000530 +00000-0 +21708-4 0 9999 2 20580 028.4687 174.3679 0002472 260.9609 130.0995 15.08766218286384 ISS (ZARYA) 1 25544U 98067A 17142.65238604 +.00001956 +00000-0 +37076-4 0 9997 2 25544 051.6415 165.5910 0005320 180.6090 282.3040 15.53915824057784 CXO 1 25867U 99040B 17142.92253544 +.00000501 +00000-0 +00000-0 0 9995 2 25867 074.1673 290.5836 6821000 252.5493 000.4029 00.37804687015956 ____________________________________________________________________ These 2-Line ...

[TLELIST] Current TLEs

Sent May 22nd 2017

HST 1 20580U 90037B 17141.94296296 +.00000515 +00000-0 +20801-4 0 9991 2 20580 028.4686 180.9361 0002482 249.3495 132.0852 15.08765464286239 ISS (ZARYA) 1 25544U 98067A 17141.86244213 +.00001471 +00000-0 +29701-4 0 9990 2 25544 051.6414 169.5283 0005379 178.6850 182.2756 15.53909977057666 CXO 1 25867U 99040B 17142.92253544 +.00000501 +00000-0 +00000-0 0 9995 2 25867 074.1673 290.5836 6821000 252.5493 000.4029 00.37804687015956 ____________________________________________________________________ These 2-Line ...

[TLELIST] Current TLEs

Sent May 21st 2017

HST 1 20580U 90037B 17140.87686343 +.00000489 +00000-0 +19129-4 0 9999 2 20580 028.4687 187.9808 0002502 236.9346 102.4508 15.08764638286065 ISS (ZARYA) 1 25544U 98067A 17140.89773148 -.00000294 +00000-0 +28418-5 0 9994 2 25544 051.6410 174.3384 0005420 175.1023 185.6125 15.53901558057517 CXO 1 25867U 99040B 17142.92253544 +.00000501 +00000-0 +00000-0 0 9995 2 25867 074.1673 290.5836 6821000 252.5493 000.4029 00.37804687015956 ____________________________________________________________________ These 2-Line ...

[TLELIST] Current TLEs

Sent May 20th 2017

HST 1 20580U 90037B 17139.88342594 +.00000460 +00000-0 +17332-4 0 9998 2 20580 028.4688 194.5454 0002527 225.4442 107.3447 15.08763909286004 ISS (ZARYA) 1 25544U 98067A 17139.94414446 +.00001477 +00000-0 +29795-4 0 9992 2 25544 051.6404 179.0900 0005456 170.3194 252.4528 15.53903239057362 CXO 1 25867U 99040B 17140.27826615 +.00000515 +00000-0 +00000-0 0 9991 2 25867 074.1803 290.6197 6821798 252.6367 000.3661 00.37807339015944 ____________________________________________________________________ These 2-Line ...

[TLELIST] Current TLEs

Sent May 19th 2017

HST 1 20580U 90037B 17138.58943510 +.00000484 +00000-0 +18823-4 0 9991 2 20580 028.4689 203.0959 0002570 210.6653 279.8264 15.08763295285727 ISS (ZARYA) 1 25544U 98067A 17138.53789694 +.00010471 +00000-0 +16649-3 0 9993 2 25544 051.6431 186.1005 0005417 167.7458 303.2068 15.53904648057142 CXO 1 25867U 99040B 17140.27826615 +.00000515 +00000-0 +00000-0 0 9991 2 25867 074.1803 290.6197 6821798 252.6367 000.3661 00.37807339015944 ____________________________________________________________________ These 2-Line ...

< < Previous

Index

 

this list's archives:

(archive rss , atom rss/atom )

Administration